Location: Asheville, NC
(35.6000°N, 82.5500°W)
Time: 20:16:18
(UTC-04:00)

Vanguard 2 - Pass Details

Date: 14 March 2018
Orbit: 554 x 2939 km, 32.9° (Epoch: 24 June)

Event Time Altitude Azimuth Distance (km) Brightness Sun altitude
Rises 16:34:36 0° 281° (W) 6,665 12.9 34.3°
Reaches altitude 10° 16:38:59 10° 279° (W) 5,738 12.8 33.5°
Maximum altitude 16:56:34 63° 204° (SSW) 2,951 11.4 30.4°
Drops below altitude 10° 17:10:20 10° 127° (SE) 4,605 11.3 27.9°
Sets 17:13:26 0° 124° (SE) 5,332 11.5 27.4°
